FW3988 Weather Reports


time (UTC)temp
C
wind
direction
speed
KPH
gust
KPH
rain 1hr
cm
rain 24hr
cm
rain mn
cm
humidity
%
barometer
mb
20260510030131 25 287 1.6 12.9 0.00 0.00 0.00 77 1009.8
20260510024518 25 303 3.2 11.3 0.00 0.00 0.00 76 1009.6
20260510023005 25 279 3.2 8.0 0.00 0.00 0.00 75 1009.4
20260510021554 25 292 3.2 11.3 0.00 0.00 0.00 75 1009.2
20260510020007 25 301 4.8 8.0 0.00 0.00 0.00 73 1009.1
20260510014502 26 300 3.2 12.9 0.00 0.00 0.00 71 1008.9
20260510013057 26 298 6.4 12.9 0.00 0.00 0.00 67 1008.9
20260510011552 26 286 6.4 12.9 0.00 0.00 0.00 64 1008.8
20260510010139 26 284 3.2 14.5 0.00 0.00 0.00 62 1008.7
20260510004536 26 284 6.4 16.1 0.00 0.00 0.00 59 1008.5
20260510003024 26 269 8.0 17.7 0.00 0.00 0.00 62 1008.3
20260510001604 27 274 9.7 19.3 0.00 0.00 0.00 66 1008.2
20260510001503 26 267 8.0 19.3 0.00 0.00 0.00 66 1008.2
20260510000015 27 290 8.0 16.1 0.00 0.00 0.00 66 1008.2
20260509234512 27 218 8.0 17.7 0.00 0.00 0.00 59 1008.1
20260509233102 27 278 11.3 16.1 0.00 0.00 0.00 67 1008.0
20260509231549 27 299 9.7 16.1 0.00 0.00 0.00 70 1008.1
20260509230148 27 275 9.7 19.3 0.00 0.00 0.00 70 1008.1
20260509224552 27 263 9.7 22.5 0.00 0.00 0.00 69 1008.2
20260509223052 28 240 11.3 19.3 0.00 0.00 0.00 69 1008.3
20260509221535 28 267 4.8 14.5 0.00 0.00 0.00 62 1008.3
20260509220006 30 259 6.4 16.1 0.00 0.00 0.00 60 1008.2
20260509214551 29 281 8.0 19.3 0.00 0.00 0.00 57 1008.3
20260509213050 28 290 6.4 16.1 0.00 0.00 0.00 64 1008.5
20260509211550 28 244 8.0 19.3 0.00 0.00 0.00 66 1008.8
20260509210014 28 250 12.9 22.5 0.00 0.00 0.00 68 1008.9
20260509204503 28 242 8.0 16.1 0.00 0.00 0.00 66 1009.0
20260509203115 28 227 9.7 19.3 0.00 0.00 0.00 67 1009.0
20260509201538 28 232 6.4 19.3 0.00 0.00 0.00 65 1009.3
20260509200129 28 273 8.0 17.7 0.00 0.00 0.00 64 1009.4
20260509194507 27 286 8.0 14.5 0.00 0.00 0.00 66 1009.5
20260509193126 27 230 6.4 16.1 0.00 0.00 0.00 67 1009.8
20260509191556 27 258 8.0 17.7 0.00 0.00 0.00 63 1010.0
20260509190140 27 232 4.8 19.3 0.00 0.00 0.00 52 1010.0
20260509184531 29 214 8.0 16.1 0.00 0.00 0.00 48 1010.2
20260509183109 28 284 6.4 16.1 0.00 0.00 0.00 55 1010.1
20260509181601 28 243 1.6 9.7 0.00 0.00 0.00 52 1010.2
20260509180147 27 269 8.0 12.9 0.00 0.00 0.00 46 1010.1
20260509174549 27 212 6.4 12.9 0.00 0.00 0.00 43 1010.2
20260509173047 27 237 6.4 12.9 0.00 0.00 0.00 47 1010.3
20260509171536 26 209 9.7 16.1 0.00 0.00 0.00 56 1010.4
20260509170136 26 230 8.0 14.5 0.00 0.00 0.00 58 1010.4
20260509164526 26 211 6.4 14.5 0.00 0.00 0.00 59 1010.4
20260509163013 27 240 3.2 9.7 0.00 0.00 0.00 55 1010.3
20260509161600 27 220 1.6 8.0 0.00 0.00 0.00 54 1010.3
20260509160143 27 238 4.8 8.0 0.00 0.00 0.00 53 1010.4
20260509154535 27 103 0.0 3.2 0.00 0.00 0.00 45 1010.3
20260509153014 26 94 0.0 3.2 0.00 0.00 0.00 49 1010.3
20260509151545 25 103 1.6 4.8 0.00 0.00 0.00 53 1010.3
20260509150129 25 106 0.0 3.2 0.00 0.00 0.00 55 1010.4
20260509144534 23 173 0.0 3.2 0.00 0.00 0.00 62 1010.4
20260509143010 22 116 0.0 3.2 0.00 0.00 0.00 64 1010.5
20260509141557 22 35 0.0 4.8 0.00 0.00 0.00 64 1010.5
20260509140139 21 70 1.6 4.8 0.00 0.00 0.00 62 1010.3
20260509134518 21 287 0.0 3.2 0.00 0.00 0.00 65 1010.1
20260509133011 20 22 0.0 3.2 0.00 0.00 0.00 66 1010.1
20260509131545 20 242 0.0 3.2 0.00 0.00 0.00 66 1010.0
20260509130126 20 242 0.0 3.2 0.00 0.00 0.00 67 1009.9
20260509124516 20 242 0.0 3.2 0.00 0.00 0.00 68 1009.8
20260509123059 20 338 0.0 0.0 0.00 0.00 0.00 68 1009.5
20260509121540 20 338 0.0 0.0 0.00 0.00 0.00 69 1009.3
20260509120135 20 338 0.0 0.0 0.00 0.00 0.00 69 1009.3
20260509114528 20 338 0.0 3.2 0.00 0.00 0.00 69 1009.1
20260509113029 20 338 0.0 3.2 0.00 0.00 0.00 69 1008.8
20260509111525 21 337 0.0 3.2 0.00 0.00 0.00 75 1008.6
20260509110126 21 337 0.0 3.2 0.00 0.00 0.00 75 1008.5
20260509104553 21 337 0.0 0.0 0.00 0.00 0.00 75 1008.4
20260509103049 21 337 0.0 0.0 0.00 0.00 0.00 74 1008.5
20260509101544 21 337 0.0 3.2 0.00 0.00 0.00 72 1008.5
20260509100136 21 337 0.0 3.2 0.00 0.00 0.00 73 1008.4
20260509094540 21 311 0.0 3.2 0.00 0.00 0.00 76 1008.3
20260509093022 21 311 0.0 3.2 0.00 0.00 0.00 75 1008.2
20260509091608 21 309 0.0 3.2 0.00 0.00 0.00 75 1008.1
20260509090150 21 309 0.0 3.2 0.00 0.00 0.00 74 1008.0
20260509084532 21 310 0.0 3.2 0.00 0.00 0.00 73 1008.1
20260509083019 22 310 0.0 3.2 0.00 0.00 0.00 72 1008.1
20260509081553 22 310 0.0 3.2 0.00 0.00 0.00 72 1008.3
20260509080131 22 309 1.6 4.8 0.00 0.00 0.00 70 1008.3
20260509074524 22 314 1.6 4.8 0.00 0.00 0.00 71 1008.3
20260509073010 22 311 0.0 6.4 0.00 0.00 0.00 72 1008.6
20260509071559 22 283 1.6 6.4 0.00 0.00 0.00 72 1008.6
20260509070141 22 300 1.6 6.4 0.00 0.00 0.00 72 1008.8
20260509064511 22 308 3.2 4.8 0.00 0.00 0.00 71 1008.9
20260509063054 22 296 1.6 11.3 0.00 0.00 0.00 71 1009.0
20260509061553 22 288 4.8 11.3 0.00 0.00 0.00 70 1009.1
20260509060146 22 289 3.2 9.7 0.00 0.00 0.00 71 1009.1
20260509054559 23 300 3.2 12.9 0.00 0.00 0.00 72 1009.2
20260509053044 23 329 4.8 12.9 0.00 0.00 0.00 71 1009.3
20260509051543 23 299 3.2 12.9 0.00 0.00 0.00 70 1009.3
20260509050140 23 318 6.4 16.1 0.00 0.00 0.00 69 1009.5
20260509044555 24 279 6.4 19.3 0.00 0.00 0.00 67 1009.6
20260509043036 24 311 4.8 12.9 0.00 0.00 0.00 65 1009.4
20260509041526 24 294 6.4 17.7 0.00 0.00 0.00 64 1009.4
20260509040004 24 298 9.7 17.7 0.00 0.00 0.00 64 1009.2
20260509034547 24 321 9.7 19.3 0.00 0.00 0.00 67 1009.2
20260509033032 25 331 6.4 22.5 0.00 0.00 0.00 67 1008.9